Tracking 30994 objects as of 8-Jul-2025
HD Live streaming from Space Station
objects crossing your sky now

STARLINK-32911

Track STARLINK-32911 now!
10-day predictions
STARLINK-32911 is classified as:


NORAD ID: 63096
Int'l Code: 2025-037V
Perigee: 577.0 km
Apogee: 581.4 km
Inclination: 70.0 °
Period: 96.1 minutes
Semi major axis: 6950 km
RCS: Unknown
Launch date: February 23, 2025
Source: United States (US)
Launch site: AIR FORCE WESTERN TEST RANGE (AFWTR)
Your satellite tracking list
Your tracking list is empty




NASA's NSSDC Master Catalog

Two Line Element Set (TLE):
1 63096U 25037V   25188.58874677  .00001918  00000-0  16845-3 0  9993
2 63096  70.0006 252.6218 0003172 265.1143  94.9654 14.98332658 21885
Source of the keplerian elements: AFSPC